QPF
0.00 0.00 0.00 0.00 0.00 0.00 0.01 0.01 0.02 0.01 0.01 0.02 0.02 0.04 0.05 0.08 0.13 0.18 0.27 0.31 0.32 0.30 0.30 0.31 0.25 0.19 0.14 0.10 0.07 0.03 0.01 0.00 0.00 0.00 0.00 0.00 0.00 0.00 0.00 0.00 0.00 0.00 0.00 0.00
0.00 0.00 0.00 0.00 0.00 0.01 0.01 0.01 0.02 0.02 0.02 0.02 0.02 0.04 0.04 0.05 0.08 0.12 0.17 0.16 0.17 0.16 0.20 0.27 0.27 0.21 0.10 0.07 0.03 0.01 0.00 0.00 0.00 0.00 0.00 0.00 0.00 0.00 0.00 0.00 0.00 0.00 0.00 0.00
0.00 0.00 0.00 0.00 0.00 0.00 0.01 0.01 0.01 0.02 0.03 0.03 0.02 0.03 0.03 0.03 0.03 0.06 0.07 0.06 0.09 0.10 0.13 0.23 0.30 0.17 0.06 0.03 0.01 0.01 0.00 0.00 0.00 0.00 0.00 0.00 0.00 0.00 0.00 0.00 0.00 0.00 0.00 0.00
0.00 0.00 0.01 0.00 0.01 0.01 0.01 0.01 0.01 0.01 0.03 0.04 0.03 0.04 0.04 0.03 0.02 0.03 0.03 0.02 0.04 0.06 0.06 0.09 0.18 0.07 0.02 0.01 0.00 0.01 0.01 0.01 0.01 0.00 0.00 0.00 0.00 0.00 0.00 0.00 0.00 0.00 0.00 0.00
0.00 0.01 0.01 0.01 0.01 0.01 0.00 0.00 0.00 0.01 0.04 0.07 0.05 0.05 0.04 0.03 0.01 0.01 0.01 0.01 0.01 0.04 0.03 0.03 0.05 0.02 0.01 0.01 0.01 0.01 0.01 0.01 0.01 0.00 0.00 0.00 0.00 0.00 0.00 0.00 0.00 0.00 0.00 0.00
0.01 0.02 0.02 0.01 0.01 0.01 0.00 0.00 0.01 0.03 0.07 0.10 0.04 0.04 0.03 0.01 0.01 0.00 0.00 0.00 0.00 0.00 0.00 0.00 0.01 0.01 0.01 0.01 0.01 0.01 0.00 0.00 0.00 0.00 0.00 0.00 0.00 0.00 0.00 0.00 0.00 0.00 0.00 0.00
0.02 0.03 0.03 0.01 0.00 0.00 0.00 0.01 0.02 0.05 0.09 0.07 0.03 0.04 0.02 0.00 0.00 0.00 0.00 0.00 0.00 0.00 0.00 0.00 0.00 0.00 0.00 0.01 0.00 0.00 0.00 0.00 0.00 0.00 0.00 0.00 0.00 0.00 0.00 0.00 0.00 0.00 0.00 0.00
0.02 0.02 0.02 0.01 0.00 0.00 0.00 0.01 0.02 0.03 0.04 0.08 0.09 0.08 0.02 0.01 0.00 0.00 0.00 0.00 0.00 0.00 0.00 0.00 0.00 0.00 0.00 0.00 0.00 0.00 0.00 0.00 0.00 0.00 0.00 0.00 0.00 0.00 0.00 0.00 0.00 0.00 0.00 0.00
0.02 0.01 0.00 0.00 0.00 0.00 0.00 0.00 0.00 0.01 0.03 0.08 0.14 0.10 0.03 0.01 0.00 0.00 0.00 0.00 0.00 0.00 0.00 0.00 0.00 0.00 0.00 0.00 0.00 0.00 0.00 0.00 0.00 0.00 0.00 0.00 0.00 0.00 0.00 0.00 0.00 0.00 0.00 0.00
0.01 0.00 0.00 0.00 0.01 0.00 0.00 0.00 0.00 0.01 0.03 0.07 0.09 0.09 0.05 0.01 0.00 0.00 0.00 0.00 0.00 0.00 0.00 0.00 0.00 0.00 0.00 0.00 0.00 0.00 0.00 0.00 0.00 0.00 0.00 0.00 0.00 0.00 0.00 0.00 0.00 0.00 0.00 0.00
0.01 0.00 0.00 0.00 0.01 0.01 0.01 0.01 0.01 0.01 0.01 0.03 0.05 0.05 0.02 0.01 0.01 0.00 0.00 0.00 0.00 0.00 0.00 0.00 0.00 0.00 0.00 0.00 0.00 0.00 0.00 0.00 0.00 0.00 0.00 0.00 0.00 0.00 0.00 0.00 0.00 0.00 0.00 0.00
0.00 0.00 0.00 0.01 0.01 0.01 0.01 0.01 0.01 0.01 0.01 0.02 0.03 0.02 0.02 0.02 0.01 0.00 0.00 0.00 0.00 0.00 0.00 0.00 0.00 0.00 0.00 0.00 0.00 0.00 0.00 0.00 0.00 0.00 0.00 0.00 0.00 0.00 0.00 0.00 0.00 0.00 0.00 0.00
0.00 0.00 0.00 0.00 0.01 0.01 0.01 0.01 0.01 0.01 0.01 0.01 0.02 0.03 0.02 0.01 0.01 0.00 0.00 0.00 0.00 0.00 0.00 0.00 0.00 0.00 0.00 0.00 0.00 0.00 0.00 0.00 0.00 0.00 0.00 0.00 0.00 0.00 0.00 0.00 0.00 0.00 0.00 0.00
0.00 0.00 0.00 0.00 0.02 0.02 0.01 0.02 0.01 0.01 0.01 0.01 0.01 0.01 0.01 0.01 0.00 0.00 0.00 0.00 0.00 0.00 0.00 0.00 0.00 0.00 0.00 0.00 0.00 0.00 0.00 0.00 0.00 0.00 0.00 0.00 0.00 0.00 0.00 0.00 0.00 0.00 0.00 0.00
0.01 0.00 0.00 0.00 0.00 0.02 0.02 0.02 0.02 0.01 0.01 0.01 0.01 0.01 0.01 0.01 0.00 0.00 0.00 0.00 0.00 0.00 0.00 0.00 0.00 0.00 0.00 0.00 0.00 0.00 0.00 0.00 0.00 0.00 0.00 0.00 0.00 0.00 0.00 0.00 0.00 0.00 0.00 0.00
0.01 0.01 0.00 0.00 0.00 0.01 0.02 0.02 0.02 0.01 0.02 0.01 0.01 0.01 0.01 0.01 0.01 0.01 0.00 0.00 0.00 0.00 0.00 0.00 0.00 0.00 0.00 0.00 0.00 0.00 0.00 0.00 0.00 0.00 0.00 0.00 0.00 0.00 0.00 0.00 0.00 0.00 0.00 0.00
0.01 0.01 0.00 0.00 0.00 0.01 0.01 0.02 0.02 0.02 0.02 0.02 0.03 0.03 0.03 0.03 0.03 0.02 0.01 0.00 0.00 0.00 0.00 0.00 0.00 0.00 0.00 0.00 0.00 0.00 0.00 0.00 0.00 0.00 0.00 0.00 0.00 0.00 0.00 0.00 0.00 0.00 0.00 0.00
0.02 0.01 0.01 0.00 0.00 0.01 0.01 0.03 0.03 0.03 0.03 0.05 0.08 0.07 0.05 0.04 0.04 0.04 0.02 0.01 0.01 0.01 0.00 0.00 0.00 0.00 0.00 0.00 0.00 0.00 0.00 0.00 0.00 0.00 0.00 0.00 0.00 0.00 0.00 0.00 0.00 0.00 0.00 0.00
0.03 0.02 0.01 0.01 0.01 0.01 0.02 0.03 0.04 0.04 0.05 0.07 0.10 0.08 0.06 0.04 0.03 0.03 0.03 0.02 0.01 0.01 0.01 0.01 0.01 0.01 0.02 0.02 0.02 0.01 0.01 0.01 0.00 0.00 0.00 0.00 0.00 0.00 0.00 0.00 0.00 0.00 0.00 0.00
0.04 0.04 0.03 0.03 0.03 0.02 0.02 0.04 0.04 0.03 0.06 0.09 0.14 0.14 0.10 0.07 0.09 0.09 0.05 0.04 0.04 0.03 0.02 0.01 0.01 0.02 0.01 0.01 0.01 0.02 0.02 0.01 0.01 0.01 0.01 0.02 0.02 0.02 0.01 0.01 0.01 0.00 0.00 0.00
0.08 0.11 0.07 0.04 0.04 0.04 0.05 0.05 0.05 0.08 0.12 0.18 0.21 0.16 0.15 0.15 0.13 0.12 0.09 0.06 0.05 0.03 0.02 0.02 0.01 0.02 0.02 0.01 0.01 0.01 0.01 0.02 0.01 0.02 0.03 0.03 0.03 0.03 0.03 0.02 0.01 0.01 0.01 0.00
0.10 0.17 0.18 0.13 0.14 0.15 0.12 0.08 0.09 0.13 0.13 0.15 0.13 0.09 0.09 0.07 0.07 0.09 0.05 0.03 0.03 0.02 0.02 0.02 0.03 0.04 0.04 0.03 0.03 0.03 0.03 0.04 0.04 0.05 0.05 0.05 0.04 0.04 0.03 0.02 0.01 0.01 0.01 0.01
0.11 0.15 0.16 0.17 0.20 0.19 0.16 0.14 0.12 0.11 0.07 0.03 0.02 0.01 0.01 0.02 0.03 0.03 0.01 0.01 0.01 0.01 0.01 0.01 0.01 0.02 0.02 0.03 0.04 0.04 0.04 0.05 0.06 0.07 0.07 0.07 0.05 0.04 0.03 0.02 0.02 0.02 0.01 0.01
0.08 0.08 0.09 0.13 0.16 0.15 0.15 0.14 0.10 0.05 0.02 0.01 0.01 0.00 0.00 0.01 0.01 0.01 0.00 0.00 0.00 0.00 0.00 0.01 0.01 0.01 0.01 0.01 0.02 0.03 0.04 0.05 0.05 0.06 0.06 0.05 0.04 0.04 0.05 0.04 0.03 0.02 0.02 0.01
0.06 0.06 0.06 0.10 0.14 0.13 0.12 0.10 0.06 0.03 0.01 0.01 0.00 0.00 0.00 0.00 0.00 0.00 0.00 0.00 0.00 0.00 0.00 0.00 0.01 0.01 0.01 0.01 0.01 0.01 0.01 0.01 0.02 0.03 0.03 0.03 0.03 0.03 0.04 0.03 0.03 0.03 0.02 0.03
0.04 0.06 0.05 0.07 0.14 0.19 0.17 0.11 0.06 0.03 0.01 0.01 0.00 0.00 0.00 0.00 0.00 0.00 0.00 0.00 0.00 0.00 0.00 0.00 0.00 0.00 0.00 0.00 0.00 0.00 0.01 0.01 0.01 0.02 0.02 0.02 0.03 0.04 0.04 0.04 0.04 0.04 0.04 0.05
MSLP
1013.15 1013.61 1013.90 1014.07 1014.19 1014.33 1014.53 1014.82 1015.18 1015.55 1015.88 1016.10 1016.18 1016.09 1015.88 1015.59 1015.29 1015.05 1014.92 1014.91 1015.02 1015.20 1015.42 1015.61 1015.74 1015.79 1015.79 1015.76 1015.75 1015.80 1015.94 1016.18 1016.49 1016.85 1017.20 1017.51 1017.73 1017.85 1017.88 1017.85 1017.79 1017.75 1017.74 1017.79
1013.32 1013.68 1013.87 1013.95 1014.01 1014.15 1014.40 1014.79 1015.28 1015.79 1016.24 1016.54 1016.65 1016.55 1016.28 1015.92 1015.54 1015.23 1015.06 1015.03 1015.14 1015.34 1015.56 1015.74 1015.85 1015.86 1015.80 1015.72 1015.67 1015.71 1015.87 1016.16 1016.54 1016.97 1017.38 1017.72 1017.95 1018.05 1018.03 1017.93 1017.81 1017.72 1017.69 1017.76
1013.17 1013.42 1013.51 1013.53 1013.59 1013.79 1014.17 1014.73 1015.40 1016.09 1016.67 1017.05 1017.18 1017.05 1016.69 1016.20 1015.70 1015.27 1015.01 1014.92 1015.00 1015.19 1015.42 1015.60 1015.70 1015.70 1015.63 1015.53 1015.47 1015.52 1015.71 1016.05 1016.50 1017.00 1017.48 1017.87 1018.11 1018.20 1018.15 1018.01 1017.85 1017.72 1017.67 1017.73
1012.79 1012.92 1012.93 1012.93 1013.05 1013.37 1013.93 1014.71 1015.61 1016.50 1017.23 1017.70 1017.83 1017.61 1017.12 1016.47 1015.78 1015.18 1014.77 1014.58 1014.60 1014.76 1014.99 1015.19 1015.31 1015.33 1015.27 1015.18 1015.14 1015.21 1015.44 1015.83 1016.34 1016.91 1017.45 1017.88 1018.16 1018.27 1018.22 1018.07 1017.89 1017.74 1017.69 1017.75
1012.33 1012.34 1012.28 1012.30 1012.51 1013.00 1013.78 1014.82 1015.96 1017.06 1017.93 1018.46 1018.56 1018.24 1017.58 1016.70 1015.79 1014.98 1014.40 1014.07 1014.01 1014.13 1014.36 1014.59 1014.75 1014.81 1014.78 1014.73 1014.71 1014.81 1015.07 1015.49 1016.04 1016.65 1017.24 1017.73 1018.06 1018.21 1018.20 1018.07 1017.91 1017.77 1017.73 1017.80
1011.96 1011.85 1011.74 1011.78 1012.10 1012.77 1013.79 1015.06 1016.44 1017.71 1018.70 1019.25 1019.29 1018.84 1017.98 1016.87 1015.72 1014.69 1013.91 1013.45 1013.29 1013.38 1013.62 1013.89 1014.10 1014.22 1014.25 1014.24 1014.26 1014.37 1014.64 1015.06 1015.62 1016.26 1016.88 1017.41 1017.80 1018.00 1018.05 1017.98 1017.87 1017.77 1017.75 1017.84
1011.78 1011.56 1011.41 1011.48 1011.91 1012.73 1013.94 1015.41 1016.96 1018.36 1019.40 1019.94 1019.89 1019.29 1018.23 1016.90 1015.52 1014.29 1013.34 1012.75 1012.53 1012.60 1012.86 1013.18 1013.47 1013.66 1013.76 1013.80 1013.84 1013.95 1014.20 1014.61 1015.15 1015.78 1016.40 1016.96 1017.39 1017.66 1017.78 1017.78 1017.74 1017.70 1017.72 1017.82
1011.83 1011.51 1011.33 1011.43 1011.92 1012.86 1014.18 1015.76 1017.39 1018.84 1019.88 1020.35 1020.20 1019.44 1018.21 1016.70 1015.15 1013.76 1012.69 1012.02 1011.76 1011.84 1012.15 1012.54 1012.91 1013.19 1013.36 1013.45 1013.51 1013.62 1013.85 1014.21 1014.70 1015.29 1015.89 1016.45 1016.91 1017.23 1017.41 1017.49 1017.51 1017.53 1017.59 1017.71
1012.03 1011.66 1011.46 1011.56 1012.08 1013.05 1014.40 1015.99 1017.61 1019.00 1019.96 1020.34 1020.07 1019.19 1017.83 1016.21 1014.55 1013.08 1011.96 1011.27 1011.02 1011.14 1011.51 1011.99 1012.45 1012.82 1013.07 1013.21 1013.30 1013.41 1013.60 1013.91 1014.34 1014.86 1015.42 1015.95 1016.41 1016.76 1016.98 1017.11 1017.19 1017.25 1017.34 1017.48
1012.28 1011.90 1011.68 1011.78 1012.29 1013.21 1014.50 1016.00 1017.50 1018.76 1019.58 1019.83 1019.45 1018.48 1017.07 1015.41 1013.74 1012.28 1011.18 1010.53 1010.33 1010.51 1010.95 1011.52 1012.07 1012.53 1012.86 1013.06 1013.18 1013.30 1013.46 1013.72 1014.09 1014.54 1015.04 1015.53 1015.96 1016.30 1016.54 1016.70 1016.80 1016.89 1016.99 1017.12
1012.44 1012.09 1011.89 1011.98 1012.43 1013.26 1014.41 1015.73 1017.02 1018.09 1018.74 1018.85 1018.38 1017.38 1015.98 1014.37 1012.78 1011.41 1010.40 1009.84 1009.71 1009.96 1010.47 1011.10 1011.72 1012.25 1012.65 1012.91 1013.09 1013.22 1013.38 1013.61 1013.93 1014.32 1014.75 1015.19 1015.57 1015.89 1016.12 1016.27 1016.38 1016.46 1016.55 1016.67
1012.43 1012.16 1012.01 1012.10 1012.48 1013.18 1014.13 1015.22 1016.28 1017.11 1017.58 1017.56 1017.04 1016.05 1014.73 1013.25 1011.81 1010.59 1009.71 1009.25 1009.19 1009.49 1010.03 1010.69 1011.35 1011.93 1012.37 1012.69 1012.91 1013.09 1013.27 1013.49 1013.78 1014.14 1014.52 1014.90 1015.24 1015.52 1015.72 1015.85 1015.94 1016.00 1016.07 1016.16
1012.26 1012.11 1012.04 1012.13 1012.45 1013.01 1013.76 1014.60 1015.40 1016.01 1016.30 1016.18 1015.65 1014.73 1013.54 1012.24 1010.99 1009.94 1009.20 1008.83 1008.83 1009.13 1009.66 1010.29 1010.93 1011.50 1011.96 1012.31 1012.58 1012.80 1013.02 1013.27 1013.56 1013.90 1014.25 1014.59 1014.90 1015.14 1015.31 1015.42 1015.49 1015.54 1015.59 1015.66
1012.02 1012.01 1012.03 1012.15 1012.42 1012.85 1013.40 1014.02 1014.59 1014.99 1015.13 1014.95 1014.44 1013.63 1012.61 1011.50 1010.45 1009.58 1008.97 1008.66 1008.66 1008.91 1009.35 1009.89 1010.44 1010.95 1011.39 1011.75 1012.04 1012.30 1012.57 1012.85 1013.17 1013.51 1013.86 1014.19 1014.47 1014.70 1014.86 1014.96 1015.02 1015.07 1015.11 1015.17
1011.85 1011.98 1012.10 1012.25 1012.48 1012.80 1013.20 1013.61 1013.98 1014.22 1014.26 1014.05 1013.59 1012.90 1012.06 1011.16 1010.30 1009.57 1009.05 1008.76 1008.71 1008.85 1009.15 1009.53 1009.94 1010.34 1010.70 1011.01 1011.31 1011.59 1011.89 1012.22 1012.57 1012.93 1013.29 1013.62 1013.91 1014.14 1014.31 1014.42 1014.51 1014.57 1014.64 1014.71
1011.87 1012.13 1012.32 1012.51 1012.71 1012.94 1013.21 1013.47 1013.68 1013.79 1013.76 1013.55 1013.15 1012.60 1011.93 1011.21 1010.51 1009.90 1009.43 1009.12 1008.97 1008.97 1009.08 1009.26 1009.48 1009.72 1009.96 1010.20 1010.46 1010.74 1011.05 1011.40 1011.77 1012.16 1012.53 1012.88 1013.18 1013.43 1013.63 1013.79 1013.92 1014.03 1014.14 1014.25
1012.17 1012.49 1012.74 1012.94 1013.11 1013.27 1013.42 1013.56 1013.66 1013.68 1013.60 1013.41 1013.08 1012.65 1012.13 1011.57 1011.00 1010.48 1010.04 1009.68 1009.42 1009.25 1009.16 1009.13 1009.14 1009.20 1009.29 1009.43 1009.62 1009.86 1010.16 1010.50 1010.87 1011.26 1011.64 1012.00 1012.32 1012.60 1012.85 1013.06 1013.25 1013.43 1013.60 1013.75
1012.70 1013.05 1013.30 1013.48 1013.61 1013.70 1013.76 1013.80 1013.81 1013.77 1013.66 1013.48 1013.23 1012.90 1012.51 1012.07 1011.61 1011.16 1010.73 1010.33 1009.97 1009.66 1009.39 1009.17 1009.00 1008.89 1008.84 1008.86 1008.95 1009.13 1009.37 1009.67 1010.01 1010.37 1010.74 1011.09 1011.42 1011.72 1012.01 1012.27 1012.53 1012.77 1012.99 1013.20
1013.35 1013.66 1013.87 1014.00 1014.06 1014.08 1014.06 1014.02 1013.96 1013.87 1013.75 1013.59 1013.39 1013.14 1012.85 1012.52 1012.16 1011.78 1011.37 1010.96 1010.55 1010.15 1009.76 1009.41 1009.10 1008.85 1008.68 1008.59 1008.60 1008.68 1008.85 1009.08 1009.35 1009.65 1009.96 1010.28 1010.59 1010.89 1011.20 1011.49 1011.79 1012.07 1012.33 1012.57
1013.91 1014.14 1014.28 1014.33 1014.32 1014.26 1014.17 1014.06 1013.95 1013.82 1013.70 1013.56 1013.40 1013.22 1013.02 1012.78 1012.51 1012.21 1011.86 1011.48 1011.08 1010.66 1010.23 1009.82 1009.45 1009.13 1008.88 1008.71 1008.62 1008.62 1008.69 1008.83 1009.01 1009.22 1009.45 1009.69 1009.95 1010.22 1010.51 1010.80 1011.10 1011.39 1011.66 1011.89
1014.20 1014.33 1014.37 1014.33 1014.25 1014.12 1013.98 1013.83 1013.68 1013.54 1013.42 1013.30 1013.18 1013.07 1012.94 1012.80 1012.62 1012.41 1012.16 1011.87 1011.53 1011.16 1010.78 1010.39 1010.02 1009.69 1009.41 1009.19 1009.04 1008.96 1008.94 1008.97 1009.04 1009.14 1009.27 1009.42 1009.60 1009.80 1010.03 1010.28 1010.53 1010.79 1011.02 1011.21
1014.07 1014.10 1014.05 1013.94 1013.80 1013.64 1013.47 1013.31 1013.16 1013.03 1012.92 1012.83 1012.76 1012.71 1012.66 1012.60 1012.53 1012.43 1012.29 1012.12 1011.90 1011.65 1011.36 1011.06 1010.75 1010.46 1010.19 1009.97 1009.78 1009.63 1009.53 1009.46 1009.43 1009.42 1009.43 1009.48 1009.55 1009.66 1009.80 1009.96 1010.13 1010.30 1010.45 1010.56
1013.51 1013.45 1013.34 1013.20 1013.03 1012.87 1012.72 1012.59 1012.47 1012.38 1012.32 1012.28 1012.26 1012.27 1012.29 1012.32 1012.34 1012.36 1012.35 1012.31 1012.23 1012.11 1011.95 1011.76 1011.55 1011.33 1011.11 1010.89 1010.69 1010.51 1010.34 1010.20 1010.07 1009.96 1009.87 1009.81 1009.78 1009.78 1009.80 1009.85 1009.91 1009.96 1009.99 1009.98
1012.59 1012.49 1012.36 1012.22 1012.08 1011.97 1011.88 1011.82 1011.78 1011.77 1011.77 1011.80 1011.85 1011.91 1012.00 1012.10 1012.21 1012.32 1012.42 1012.50 1012.55 1012.56 1012.52 1012.45 1012.33 1012.18 1012.01 1011.82 1011.62 1011.41 1011.21 1011.01 1010.81 1010.63 1010.46 1010.31 1010.19 1010.08 1009.99 1009.91 1009.83 1009.74 1009.64 1009.50
1011.50 1011.40 1011.29 1011.19 1011.14 1011.11 1011.13 1011.18 1011.25 1011.34 1011.44 1011.54 1011.66 1011.79 1011.93 1012.09 1012.25 1012.43 1012.60 1012.75 1012.89 1012.98 1013.03 1013.04 1012.99 1012.89 1012.76 1012.59 1012.39 1012.18 1011.96 1011.73 1011.50 1011.27 1011.06 1010.85 1010.64 1010.45 1010.25 1010.05 1009.84 1009.61 1009.35 1009.08
1010.48 1010.41 1010.35 1010.34 1010.39 1010.49 1010.63 1010.81 1011.01 1011.22 1011.42 1011.61 1011.79 1011.97 1012.15 1012.33 1012.52 1012.71 1012.91 1013.09 1013.25 1013.37 1013.45 1013.48 1013.45 1013.38 1013.25 1013.09 1012.89 1012.68 1012.45 1012.22 1011.98 1011.75 1011.52 1011.28 1011.03 1010.77 1010.49 1010.19 1009.85 1009.49 1009.09 1008.68
Thickness
5794 5774 5760 5769 5773 5770 5766 5756 5750 5754 5765 5753 5742 5738 5739 5739 5734 5729 5726 5725 5725 5726 5730 5732 5734 5735 5734 5733 5732 5732 5731 5730 5730 5727 5724 5721 5719 5718 5716 5716 5715 5714 5713 5711
5773 5765 5785 5793 5789 5782 5770 5755 5751 5755 5764 5754 5740 5738 5742 5740 5736 5733 5730 5727 5726 5725 5725 5726 5729 5730 5730 5730 5731 5731 5730 5729 5729 5728 5725 5723 5721 5718 5716 5714 5713 5712 5710 5708
5766 5781 5801 5794 5783 5775 5765 5757 5754 5750 5753 5750 5740 5730 5735 5740 5740 5737 5736 5733 5731 5727 5724 5724 5726 5727 5729 5731 5732 5734 5731 5730 5730 5729 5725 5723 5719 5716 5713 5710 5710 5710 5708 5706
5779 5795 5796 5785 5778 5775 5756 5771 5768 5757 5737 5722 5729 5707 5727 5735 5735 5737 5737 5735 5734 5733 5730 5729 5729 5729 5731 5734 5735 5735 5732 5731 5730 5728 5725 5720 5716 5712 5711 5710 5708 5708 5707 5705
5777 5790 5786 5779 5781 5779 5765 5772 5763 5751 5731 5717 5719 5710 5717 5731 5728 5735 5739 5739 5738 5738 5736 5734 5735 5736 5737 5738 5737 5736 5733 5731 5730 5728 5725 5721 5716 5713 5711 5710 5707 5706 5705 5703
5786 5797 5793 5789 5793 5788 5776 5760 5748 5733 5720 5703 5712 5709 5712 5726 5735 5740 5743 5745 5744 5743 5743 5741 5742 5741 5740 5740 5739 5737 5733 5731 5730 5728 5725 5721 5717 5714 5710 5708 5706 5704 5702 5701
5770 5783 5793 5794 5780 5778 5768 5738 5713 5708 5695 5697 5717 5715 5718 5745 5754 5752 5750 5750 5750 5749 5746 5744 5743 5742 5742 5741 5741 5739 5735 5732 5731 5729 5726 5723 5719 5715 5711 5708 5705 5703 5700 5698
5745 5751 5780 5786 5779 5767 5763 5742 5712 5699 5692 5698 5715 5713 5734 5761 5766 5766 5762 5758 5756 5752 5751 5750 5750 5749 5747 5746 5745 5741 5737 5734 5732 5730 5727 5724 5720 5716 5712 5709 5706 5703 5700 5699
5742 5750 5786 5790 5791 5780 5761 5747 5744 5717 5706 5695 5703 5720 5744 5765 5763 5763 5762 5759 5757 5757 5757 5757 5756 5754 5752 5750 5748 5745 5740 5736 5734 5731 5728 5724 5720 5717 5713 5710 5707 5704 5701 5699
5759 5749 5771 5786 5785 5780 5773 5760 5735 5715 5695 5687 5699 5709 5720 5746 5752 5757 5758 5760 5761 5761 5761 5761 5759 5758 5756 5755 5751 5748 5744 5740 5736 5733 5729 5725 5721 5718 5714 5710 5706 5703 5701 5698
5769 5749 5755 5764 5759 5756 5762 5755 5737 5717 5710 5691 5686 5707 5750 5753 5758 5758 5762 5765 5765 5765 5766 5765 5763 5762 5759 5756 5752 5748 5744 5740 5736 5733 5729 5725 5721 5718 5714 5709 5706 5703 5700 5697
5770 5746 5737 5750 5765 5771 5763 5753 5737 5716 5710 5705 5697 5715 5771 5769 5769 5767 5768 5771 5771 5770 5770 5768 5765 5761 5757 5754 5751 5748 5745 5741 5738 5734 5730 5725 5721 5717 5712 5709 5706 5702 5699 5696
5768 5741 5721 5724 5736 5752 5751 5753 5745 5727 5712 5703 5698 5722 5771 5770 5770 5772 5771 5772 5772 5769 5767 5765 5762 5759 5757 5754 5751 5748 5746 5743 5739 5734 5729 5724 5720 5716 5712 5709 5705 5702 5698 5694
5772 5742 5726 5718 5723 5738 5741 5749 5749 5731 5710 5710 5718 5732 5756 5762 5765 5769 5771 5772 5770 5768 5766 5762 5759 5757 5756 5754 5751 5748 5745 5743 5739 5734 5728 5723 5720 5716 5712 5708 5705 5701 5697 5692
5766 5743 5746 5744 5749 5748 5747 5749 5751 5742 5734 5722 5731 5736 5749 5757 5764 5769 5771 5770 5768 5764 5762 5761 5758 5755 5753 5751 5750 5748 5746 5743 5739 5733 5728 5724 5721 5716 5712 5707 5703 5699 5695 5691
5756 5745 5744 5741 5749 5747 5744 5749 5751 5747 5742 5739 5739 5738 5754 5761 5765 5765 5766 5765 5763 5762 5762 5761 5758 5755 5752 5751 5749 5747 5744 5742 5738 5733 5729 5725 5719 5714 5710 5705 5701 5696 5691 5687
5743 5735 5728 5722 5737 5734 5723 5738 5740 5733 5734 5732 5724 5730 5746 5749 5752 5754 5758 5760 5759 5760 5760 5758 5757 5756 5755 5754 5752 5747 5746 5742 5736 5731 5728 5723 5718 5713 5709 5704 5698 5692 5688 5683
5738 5727 5715 5712 5717 5705 5724 5745 5744 5730 5725 5729 5731 5734 5739 5740 5743 5748 5751 5753 5754 5756 5757 5756 5756 5755 5754 5753 5750 5749 5745 5739 5733 5729 5725 5721 5716 5711 5706 5700 5695 5690 5684 5679
5739 5724 5710 5700 5699 5709 5727 5735 5734 5723 5710 5718 5723 5729 5735 5741 5741 5735 5739 5743 5745 5746 5748 5749 5751 5751 5750 5748 5747 5743 5737 5733 5728 5725 5722 5719 5714 5708 5702 5696 5691 5686 5680 5674
5728 5721 5707 5698 5694 5694 5716 5733 5739 5726 5701 5714 5719 5722 5727 5729 5712 5712 5726 5732 5735 5737 5739 5740 5741 5741 5738 5739 5740 5734 5729 5724 5722 5721 5719 5715 5710 5704 5698 5693 5688 5682 5675 5670
5707 5702 5697 5691 5687 5699 5720 5730 5729 5701 5700 5713 5715 5717 5718 5714 5709 5711 5717 5721 5722 5723 5725 5726 5726 5724 5723 5726 5725 5719 5716 5713 5714 5714 5711 5706 5701 5696 5692 5687 5682 5675 5669 5663
5697 5691 5688 5684 5679 5689 5717 5718 5708 5705 5712 5712 5713 5715 5713 5709 5708 5708 5708 5709 5710 5710 5710 5710 5709 5707 5708 5710 5708 5703 5699 5701 5702 5700 5697 5694 5690 5687 5683 5677 5672 5667 5660 5654
5701 5701 5695 5692 5694 5706 5713 5711 5712 5709 5707 5709 5711 5712 5708 5702 5699 5698 5698 5697 5697 5696 5696 5696 5695 5693 5692 5692 5690 5686 5684 5686 5686 5683 5680 5678 5675 5672 5669 5665 5661 5655 5650 5645
5704 5706 5696 5691 5697 5703 5706 5706 5708 5707 5706 5708 5707 5705 5701 5695 5691 5688 5687 5685 5684 5683 5683 5682 5681 5678 5675 5675 5673 5670 5669 5669 5668 5665 5662 5660 5658 5656 5653 5651 5647 5643 5640 5636
5705 5699 5689 5685 5692 5696 5698 5700 5702 5701 5702 5700 5697 5694 5689 5685 5681 5678 5675 5673 5672 5671 5670 5668 5665 5662 5659 5658 5656 5655 5654 5653 5650 5647 5644 5643 5641 5639 5638 5636 5634 5632 5631 5628
5705 5699 5691 5689 5695 5690 5688 5694 5695 5691 5689 5688 5684 5679 5677 5675 5670 5667 5664 5661 5660 5658 5656 5653 5650 5647 5644 5643 5641 5640 5639 5637 5633 5630 5628 5626 5625 5624 5622 5621 5622 5622 5620 5619